#timestamp,LO_Frequency,Hit,StdDev 
1627783215.2,286046998.3,N
1627783235.0,286046998.9,N
1627783235.9,286046998.9,N
1627783255.8,286046999.2,N
1627783275.6,286046997.1,N
1627783295.5,286046997.0,N
1627783315.3,286046996.6,N
1627783335.1,286046999.6,N
1627783355.9,286046996.7,N
1627783375.7,286047000.7,N
1627783395.5,286047001.2,N
1627783415.4,286047000.7,N
1627783435.2,286047000.2,N
1627783455.1,286047002.7,N
1627783456.0,286047002.7,N
1627783475.8,286047001.9,N
1627783495.6,286047003.6,N
1627783515.5,286047003.9,N
1627783535.3,286047004.0,N
1627783555.1,286047002.2,N
1627783575.9,286047001.4,N
1627783595.7,286047004.2,N
1627783615.5,286047003.9,N
1627783635.4,286047003.4,N
1627783655.2,286047003.5,N
1627783675.1,286047003.8,N
1627783676.0,286047003.8,N
1627783695.8,286047004.3,N
1627783715.6,286047003.4,N
1627783735.5,286047003.5,N
1627783755.3,286047004.1,N
1627783775.1,286047003.5,N
1627783795.9,286047003.6,N
1627783815.7,286047001.5,N
1627783835.6,286047003.7,N
1627783855.4,286047003.6,N
1627783875.2,286047001.7,N
1627783895.1,286047006.0,Y
1627783896.0,286047006.0,P
1627783915.8,286047002.0,N
1627783935.6,286047002.2,N
1627783955.5,286046999.7,N
1627783975.3,286047000.4,N
1627783995.2,286047000.9,N
1627784015.9,286047000.0,N
1627784035.7,286047000.2,N
1627784055.6,286047000.3,N
1627784075.4,286047001.0,N
1627784095.2,286047011.9,Y
1627784115.1,286046996.6,P
1627784116.0,286046996.6,N
1627784135.8,286046999.4,N
1627784155.7,286046999.0,N
1627784175.5,286046999.0,N
1627784195.3,286046996.9,N
1627784215.2,286046999.1,N
1627784235.0,286046999.2,N
1627784235.9,286046999.2,N
1627784255.7,286046998.9,N
1627784275.6,286046998.3,N
1627784295.4,286046999.6,N
1627784315.3,286046996.9,N
1627784335.1,286046999.6,N
1627784336.0,286046999.6,N
1627784355.8,286046998.9,N
1627784375.7,286046999.3,N
1627784395.5,286046999.4,N
1627784415.3,286046998.8,N
1627784435.2,286046998.4,N
1627784455.0,286046996.6,Y
1627784455.9,286046996.6,P
1627784475.8,286046998.1,N
1627784495.6,286047001.0,N
1627784515.4,286047000.3,N
1627784535.3,286047000.6,N
1627784555.1,286047000.8,N
1627784575.8,286047000.9,N
1627784595.7,286046998.1,N
1627784615.5,286047001.2,N
1627784635.3,286047000.7,N
1627784655.2,286047000.7,N
1627784675.0,286046999.8,N
1627784675.9,286046999.8,N
1627784695.8,286047002.7,N
1627784715.6,286046999.7,N
1627784735.4,286047002.5,N
1627784755.3,286047000.3,N
1627784775.1,286046999.8,N
1627784795.8,286047000.5,N
1627784815.7,286047000.2,N
1627784835.5,286047002.7,N
1627784855.4,286047000.4,N
1627784875.2,286047000.2,N
1627784895.0,286047000.1,N
1627784895.9,286047000.1,N
1627784915.8,286047002.5,N
1627784935.6,286047000.9,N
1627784955.4,286047000.6,N
1627784975.3,286047000.0,N
1627784995.1,286047002.6,N
1627785015.9,286047000.5,N
1627785035.7,286047000.6,N
1627785055.5,286047002.3,N
1627785075.4,286046999.8,N
1627785095.2,286047000.3,N
1627785115.0,286046999.9,N
1627785115.9,286046999.9,N
1627785135.8,286047002.8,N
1627785155.6,286047000.2,N
1627785175.5,286046999.8,N
1627785195.3,286046999.8,N
1627785215.1,286047001.0,N
1627785235.9,286047000.5,N
1627785255.7,286046998.2,N
1627785275.5,286047000.6,N
1627785295.4,286047002.4,N
1627785315.2,286047002.7,N
1627785335.1,286046999.9,N
1627785336.0,286046999.9,N
1627785355.8,286047000.4,N
1627785375.6,286047002.7,N
1627785395.5,286047000.9,N
1627785415.3,286046999.1,N
1627785435.1,286046999.1,N
1627785455.9,286046998.9,N
1627785475.7,286046997.7,N
1627785495.6,286046997.8,N
1627785515.4,286046999.6,N
1627785535.2,286046995.3,Y
1627785555.1,286046995.5,P
1627785556.0,286046995.5,N
1627785575.8,286046996.8,N
1627785595.6,286046998.0,N
1627785615.5,286046996.4,N
1627785635.3,286046996.3,N
1627785655.2,286046993.7,Y
1627785675.9,286046997.0,P
1627785695.7,286046996.9,P
1627785715.6,286046998.9,P
1627785735.4,286046998.1,N
1627785755.3,286047001.1,N
1627785775.1,286047002.4,N
1627785776.0,286047002.4,N
1627785795.8,286047000.2,N
1627785815.7,286047002.7,N
1627785835.5,286047002.2,N
1627785855.3,286047001.8,N
1627785875.2,286047001.5,N
1627785895.0,286047003.8,N
1627785895.9,286047003.8,N
1627785915.8,286046999.9,N
1627785935.6,286047002.4,N
1627785955.4,286047002.3,N
1627785975.3,286047000.1,N
1627785995.1,286047000.2,N
1627786015.8,286047002.4,N
1627786035.7,286046998.2,N
1627786055.5,286046996.9,N
1627786075.3,286046999.5,N
1627786095.2,286047001.0,N
1627786115.0,286047000.1,N
1627786115.9,286047000.1,N
1627786135.8,286047001.5,N
1627786155.6,286046998.1,N
1627786175.4,286046996.9,N
1627786195.3,286046998.3,N
1627786215.1,286047000.0,N
1627786235.9,286047000.5,N
1627786255.7,286046996.6,N
1627786275.5,286046998.5,N
1627786295.4,286047000.5,N
1627786315.2,286046998.1,N
1627786335.0,286047000.4,N
1627786335.9,286047000.4,N
1627786355.8,286047002.0,N
1627786375.6,286047001.4,N
1627786395.5,286047004.1,N
1627786415.3,286047003.2,N
1627786435.1,286047003.1,N
1627786455.9,286047003.0,N
1627786475.7,286047005.5,N
1627786495.5,286047003.4,N
1627786515.4,286047004.1,N
1627786535.2,286047002.9,N
1627786555.1,286047005.4,N
1627786556.0,286047005.4,N
1627786575.8,286047004.3,N
1627786595.6,286047003.1,N
1627786615.5,286047003.2,N
1627786635.3,286047001.6,N
1627786655.2,286047001.5,N
1627786675.9,286047003.7,N
1627786695.7,286047003.6,N
1627786715.6,286047002.1,N
1627786735.4,286046999.9,N
1627786755.2,286047002.3,N
1627786775.1,286047002.1,N
1627786776.0,286047002.1,N
1627786795.8,286047001.4,N
